Regional Weather Roundup
Issued by NWS

Home | Current Version | Previous Version | Graphics & Text | Print | Product List | Glossary On
Versions: 1 2 3 4 5 6 7 8 9 10 11 12 13 14 15 16 17 18 19 20 21 22 23 24 25 26 27 28 29 30 31 32 33 34 35 36 37 38 39 40 41 42 43 44 45 46 47 48 49 50
000
ASUS45 KABQ 310301
RWRNM
NEW MEXICO REGIONAL WEATHER ROUNDUP
NATIONAL WEATHER SERVICE ALBUQUERQUE NM
900 PM MDT MON MAY 30 2016

NOTE: "FAIR" MEANS FEW OR NO CLOUDS BELOW 12,000 FEET AGL WITH NO
       SIGNIFICANT WEATHER OR OBSTRUCTIONS TO VISION.

      THIS PRODUCT IS RELEASED AS TWO VERSIONS.  ONE VERSION NEAR
      THE TOP OF THE HOUR CONTAINING PRELIMINARY DATA FROM ALBUQUERQUE
      AND OTHER STATIONS.  A FINAL VERSION WITH ADDITIONAL DATA IS
      ISSUED ABOUT 10 MINUTES AFTER THE HOUR.

NMZ501-503-504-510>518-310400-
NORTHWEST PLATEAU/NORTHCENTRAL MOUNTAINS

CITY           SKY/WX    TMP DP  RH WIND       PRES   REMARKS
FARMINGTON     FAIR      70  16  12 NW6       29.96S
SANTA FE       FAIR      68  22  17 SW8       30.01R
TAOS           FAIR      64  18  16 W8        30.07S

$$
NMZ402-403-502-505>509-310400-
WESTCENTRAL MOUNTAINS/SOUTHWEST MOUNTAINS

CITY           SKY/WX    TMP DP  RH WIND       PRES   REMARKS
GALLUP         FAIR      63  23  21 S7        30.05R
GRANTS         MOCLDY    62  23  22 CALM      30.07R
SILVER CITY      N/A     64  45  48 NW5       30.06R

$$
NMZ407-409-411-412-310400-
SOUTHERN DESERTS

CITY           SKY/WX    TMP DP  RH WIND       PRES   REMARKS
DEMING         FAIR      75  40  28 NW12      29.94F
HOLLOMAN AFB   FAIR      75  38  26 SE8       29.92S
ALAMOGORDO     FAIR      72  37  28 SE6       29.95R
T OR C         FAIR      68  49  50 SW10G17   29.99R

$$
NMZ519>523-310400-
CENTRAL VALLEYS/CENTRAL HIGHLANDS

CITY           SKY/WX    TMP DP  RH WIND       PRES   REMARKS
ALBUQUERQUE    MOCLDY    75  31  19 S6        29.97R
DOUBLE EAGLE   CLEAR     68  32  26 SW10      30.00S
CLINES CORNERS FAIR      61  33  35 SW17      30.08R
BELEN          FAIR      73  32  22 S8        29.98R
SOCORRO        NOT AVBL

$$
NMZ524>526-539-540-310400-
SOUTHCENTRAL MOUNTAINS

CITY           SKY/WX    TMP DP  RH WIND       PRES   REMARKS
RUIDOSO        NOT AVBL

$$
NMZ527>531-310400-
NORTHEAST HIGHLANDS/NORTHEAST PLAINS

CITY           SKY/WX    TMP DP  RH WIND       PRES   REMARKS
LAS VEGAS      FAIR      64  17  16 SW6       30.03R
RATON          FAIR      64  34  32 NE6       30.02R
CLAYTON        FAIR      64  40  41 SW9       29.96R

$$
NMZ532>537-310400-
EASTCENTRAL PLAINS

CITY           SKY/WX    TMP DP  RH WIND       PRES   REMARKS
TUCUMCARI      FAIR      74  41  30 SW13      29.89R
CANNON AFB     CLOUDY    73  43  34 SW22G29   29.96R
CLOVIS AIRPORT MOCLDY    70  52  52 S8        29.99R

$$
NMZ028-029-538-310400-
SOUTHEAST PLAINS

CITY           SKY/WX    TMP DP  RH WIND       PRES   REMARKS
ROSWELL        FAIR      67  51  56 E6        29.98S
ARTESIA        FAIR      63  59  88 S13       29.96F
CARLSBAD       FAIR      63  57  81 SW5       29.95F
HOBBS          FAIR      66  54  63 W29G39    29.98F


$$




USA.gov is the U.S. government's official web portal to all federal, state and local government web resources and services.